This is the latest recevied weather packets stored in our database for station/object DM4XI-13. If no packets are shown the sender has not sent any weather packets the latest 10 day(s).
| Time | Temp. | Humidity | Pressure | Rain* | Wind** | Luminosity | Snow |
|---|---|---|---|---|---|---|---|
| 1777464234 | 15.56° C | 25% | 1020.7 hPa | 0 mm | 1.79 m/s, 339° | 607 W/m² | - |
| 1777464173 | 15.56° C | 26% | 1020.7 hPa | 0 mm | 2.24 m/s, 23° | 608 W/m² | - |
| 1777464112 | 15.56° C | 26% | 1020.8 hPa | 0 mm | 2.68 m/s, 350° | 609 W/m² | - |
| 1777464051 | 15.56° C | 26% | 1020.7 hPa | 0 mm | 1.79 m/s, 294° | 608 W/m² | - |
| 1777463990 | 15.56° C | 26% | 1020.9 hPa | 0 mm | 2.68 m/s, 11° | 609 W/m² | - |
| 1777463929 | 15.56° C | 26% | 1020.7 hPa | 0 mm | 1.79 m/s, 23° | 608 W/m² | - |
| 1777463868 | 16.11° C | 26% | 1020.8 hPa | 0 mm | 1.34 m/s, 353° | 610 W/m² | - |
| 1777463807 | 16.11° C | 26% | 1020.8 hPa | 0 mm | 4.47 m/s, 351° | 611 W/m² | - |
| 1777463746 | 15.56° C | 27% | 1020.8 hPa | 0 mm | 3.58 m/s, 319° | 611 W/m² | - |
| 1777463685 | 15.56° C | 27% | 1020.7 hPa | 0 mm | 1.34 m/s, 336° | 611 W/m² | - |
| 1777463624 | 15.56° C | 27% | 1021 hPa | 0 mm | 1.79 m/s, 23° | 611 W/m² | - |
| 1777463563 | 15.56° C | 26% | 1020.6 hPa | 0 mm | 2.68 m/s, 15° | 612 W/m² | - |
| 1777463502 | 15.56° C | 26% | 1020.8 hPa | 0 mm | 1.79 m/s, 94° | 613 W/m² | - |
| 1777463441 | 16.11° C | 27% | 1020.9 hPa | 0 mm | 0.89 m/s, 101° | 614 W/m² | - |
| 1777463380 | 16.11° C | 26% | 1020.9 hPa | 0 mm | 2.68 m/s, 149° | 613 W/m² | - |
| 1777463319 | 16.11° C | 28% | 1020.8 hPa | 0 mm | 1.34 m/s, 68° | 614 W/m² | - |
| 1777463258 | 16.11° C | 26% | 1020.7 hPa | 0 mm | 1.79 m/s, 288° | 615 W/m² | - |
| 1777463197 | 16.11° C | 27% | 1020.8 hPa | 0 mm | 1.34 m/s, 311° | 616 W/m² | - |
| 1777463136 | 16.11° C | 27% | 1020.8 hPa | 0 mm | 2.24 m/s, 31° | 616 W/m² | - |
| 1777463075 | 16.11° C | 27% | 1020.7 hPa | 0 mm | 2.68 m/s, 4° | 616 W/m² | - |
| 1777463014 | 16.11° C | 28% | 1020.8 hPa | 0 mm | 1.34 m/s, 168° | 617 W/m² | - |
| 1777462953 | 16.11° C | 27% | 1021 hPa | 0 mm | 1.79 m/s, 21° | 618 W/m² | - |
| 1777462892 | 16.11° C | 26% | 1020.7 hPa | 0 mm | 0.89 m/s, 308° | 618 W/m² | - |
| 1777462831 | 16.11° C | 27% | 1020.8 hPa | 0 mm | 0.89 m/s, 336° | 618 W/m² | - |
| 1777462770 | 16.11° C | 25% | 1020.8 hPa | 0 mm | 4.02 m/s, 358° | 619 W/m² | - |
* Rain latest hour (hover to see other rain measurements)
** Current wind speed in m/s (hover to see current wind gust speed)